Retour au catalogue

STARLINK-4131

ActifCommunicationsVLEO
NORAD 53246·PAYLOAD·🇺🇸 United States

Lancé Jul 24, 2022 depuis Cape Canaveral Space Force Station

Loading…

Prochains Passages (prochaines 24 heures)

TLE

FraisSource: CelesTrak SupGP

Époque: Sep 15, 2026, 02:39 UTC

1 53246C 22086E   26258.11090278 -.00033667  00000+0 -10828-2 0  2584
2 53246  53.1576  61.9231 0001111  88.5294  95.7772 15.31714460    11

Suivez STARLINK-4131 en temps réel avec AllMySat

Download on the App Store